Location: La Fredeussais
(48.1780°N, 1.3980°W)
Time: 12:35:12
(UTC+00:00)

Meteor 1-18 Rocket - Visible Passes

Search period start: 21 September 2021 00:00
Search period end: 01 October 2021 00:00
Orbit: 836 x 909 km, 81.2° (Epoch: 20 September)

Date Brightness Start Highest point End Pass type
(mag) Time Alt. Az. Time Alt. Az. Time Alt. Az.
21 Sep 7.2 04:27:22 10° ESE 04:30:46 17° E 04:34:08 10° NE visible
22 Sep 7.2 04:21:49 10° ESE 04:25:21 17° E 04:28:52 10° NE visible
23 Sep 7.1 04:16:16 10° SE 04:19:56 18° E 04:23:35 10° NE visible
24 Sep 7.0 04:10:44 10° SE 04:14:31 19° E 04:18:17 10° NE visible
25 Sep 6.9 04:05:12 10° SE 04:09:06 20° E 04:12:59 10° NE visible
26 Sep 6.8 03:59:41 10° SE 04:03:41 21° E 04:07:40 10° NE visible
27 Sep 6.7 03:54:10 10° SE 03:58:17 21° E 04:02:22 10° NE visible
28 Sep 6.6 03:48:40 10° SE 03:52:52 22° E 03:57:03 10° NE visible
29 Sep 6.5 03:43:10 10° SE 03:47:27 23° E 03:51:43 10° NE visible
29 Sep 4.3 05:24:58 10° SSW 05:30:26 55° WNW 05:35:55 10° N visible
30 Sep 6.4 03:37:40 10° SE 03:42:02 24° E 03:46:24 10° NE visible
30 Sep 4.3 05:19:37 10° SSW 05:25:04 53° WNW 05:30:31 10° N visible
